McGrath, AK

3:35 PM AKDT on July 27, 2017 (GMT -0800)
McGrath

Weather History for PAMC - October, 2012

Change the Weather History Date:

Thursday, October 11, 2012

  Actual Average Record
Temperature  
Mean Temperature 34 °F 29 °F  
Max Temperature 41 °F 36 °F 58 °F (2009)
Min Temperature 26 °F 22 °F 1 °F (1961)
Degree Days  
Heating Degree Days 31 36  
Month to date heating degree days 271 357  
Since 1 July heating degree days 1492 1460  
Cooling Degree Days 0 0  
Month to date cooling degree days 0 0  
Year to date cooling degree days 4 20  
Moisture  
Dew Point 15 °F    
Average Humidity 0    
Maximum Humidity 0    
Minimum Humidity 0    
Precipitation  
Precipitation 0.00 in 0.05 in 0.63 in (1946)
Month to date precipitation 1.79 0.63  
Year to date precipitation 20.49 14.49  
Snow  
Snow 0.00 in 0.30 in 3.90 in (1981)
Month to date snowfall 0.4 2.4  
Since 1 July snowfall 2.0 3.9  
Since 1 September snowfall 2.0 3.9  
Snow Depth 0.00 in    
Sea Level Pressure  
Sea Level Pressure 29.93 in    
Wind  
Wind Speed 8 mph (NNE)    
Max Wind Speed 15 mph    
Max Gust Speed 18 mph    
Visibility 10 miles    
Events      
T = Trace of Precipitation, MM = Missing Value Source: NWS Daily Summary

Daily Weather History Graph

Daily Weather History Graph

Search for Another Location

Airport or City:

Trip Planner

Search our weather history database for the weather conditions in past years. The results will help you decide how hot, cold, wet, or windy it might be!

Date:

Astronomy

Oct. 11, 2012 Rise Set
Actual Time 9:00 AM AKDT 7:16 PM AKDT
Civil Twilight 8:13 AM AKDT 8:02 PM AKDT
Nautical Twilight 7:20 AM AKDT 8:55 PM AKDT
Astronomical Twilight 6:26 AM AKDT 9:49 PM AKDT
Moon 3:40 AM AKDT (10/11) 5:55 PM AKDT (10/11)
Length of Visible Light 11h 48m
Length of Day
10h 16m
Waning Crescent, 17% of the Moon is Illuminated
Oct 11
Waning Crescent
Oct 15
New
Oct 21
First Quarter
Oct 29
Full
Nov 6
Last Quarter

Hourly Weather History & Observations

Time (AKDT) Temp. Windchill Dew Point Humidity Pressure Visibility Wind Dir Wind Speed Gust Speed Precip Events Conditions
12:53 AM 30.0 °F 21.1 °F 18.0 °F 61% 30.12 in 10.0 mi NNE 10.4 mph - N/A   Clear
1:53 AM 28.9 °F 19.8 °F 17.1 °F 61% 30.10 in 10.0 mi NNE 10.4 mph - N/A   Clear
2:53 AM 28.0 °F 19.3 °F 17.1 °F 63% 30.08 in 10.0 mi NNE 9.2 mph - N/A   Clear
3:53 AM 27.0 °F 18.0 °F 17.1 °F 66% 30.06 in 10.0 mi NNE 9.2 mph - N/A   Partly Cloudy
4:53 AM 27.0 °F 18.7 °F 16.0 °F 63% 30.05 in 10.0 mi NNE 8.1 mph - N/A   Partly Cloudy
5:53 AM 26.1 °F 19.4 °F 16.0 °F 66% 30.03 in 10.0 mi North 5.8 mph - N/A   Partly Cloudy
6:53 AM 27.0 °F 18.7 °F 15.1 °F 61% 30.01 in 10.0 mi North 8.1 mph - N/A   Partly Cloudy
7:53 AM 27.0 °F 18.7 °F 15.1 °F 61% 30.00 in 10.0 mi NNE 8.1 mph - N/A   Partly Cloudy
8:53 AM 27.0 °F 18.7 °F 14.0 °F 58% 29.99 in 10.0 mi NNE 8.1 mph - N/A   Partly Cloudy
9:53 AM 27.0 °F 18.0 °F 14.0 °F 58% 29.98 in 10.0 mi NNE 9.2 mph - N/A   Scattered Clouds
10:53 AM 28.9 °F 20.4 °F 12.9 °F 51% 29.97 in 10.0 mi North 9.2 mph - N/A   Scattered Clouds
12:53 PM 34.0 °F 27.2 °F 14.0 °F 44% 29.94 in 10.0 mi North 8.1 mph - N/A   Scattered Clouds
1:53 PM 37.0 °F 29.8 °F 14.0 °F 39% 29.91 in 10.0 mi North 10.4 mph - N/A   Scattered Clouds
2:53 PM 37.9 °F 32.7 °F 14.0 °F 38% 29.89 in 10.0 mi NE 6.9 mph - N/A   Partly Cloudy
3:53 PM 41.0 °F 36.4 °F 15.1 °F 35% 29.86 in 10.0 mi NNE 6.9 mph - N/A   Clear
4:53 PM 41.0 °F 35.2 °F 15.1 °F 35% 29.83 in 10.0 mi NNE 9.2 mph - N/A   Scattered Clouds
5:53 PM 39.0 °F 31.8 °F 15.1 °F 38% 29.82 in 10.0 mi NNE 11.5 mph - N/A   Clear
6:53 PM 37.0 °F 29.3 °F 15.1 °F 41% 29.81 in 10.0 mi NNE 11.5 mph - N/A   Clear
7:53 PM 34.0 °F 28.0 °F 15.1 °F 46% 29.80 in 10.0 mi NNE 6.9 mph - N/A   Clear
8:53 PM 33.1 °F 25.5 °F 15.1 °F 48% 29.79 in 10.0 mi NNE 9.2 mph - N/A   Clear
9:53 PM 32.0 °F 26.4 °F 14.0 °F 48% 29.78 in 10.0 mi NE 5.8 mph - N/A   Clear
10:53 PM 30.9 °F 24.3 °F 12.9 °F 47% 29.76 in 10.0 mi NNE 6.9 mph - N/A   Clear
11:53 PM 30.0 °F 23.2 °F 14.0 °F 51% 29.74 in 10.0 mi NNE 6.9 mph - N/A   Clear